Warwick, RI

5:29 AM EDT on August 24, 2016 (GMT -0400)
Green State

Weather History for KPVD - April, 2014

Change the Weather History Date:

Monday, April 7, 2014

  Actual Average Record
Temperature  
Mean Temperature 44 °F 46 °F  
Max Temperature 53 °F 56 °F 92 °F (2010)
Min Temperature 35 °F 37 °F 18 °F (1982)
Degree Days  
Heating Degree Days 21 19  
Month to date heating degree days 139 140  
Since 1 July heating degree days 5365 5011  
Cooling Degree Days 0 0  
Month to date cooling degree days 0 0  
Year to date cooling degree days 0 0  
Moisture  
Dew Point 32 °F    
Average Humidity 64    
Maximum Humidity 93    
Minimum Humidity 35    
Precipitation  
Precipitation 0.21 in 0.16 in 1.47 in (1953)
Month to date precipitation 0.43 1.12  
Year to date precipitation 15.81 13.28  
Snow  
Snow 0.00 in 0.10 in 2.10 in (2003)
Month to date snowfall 0.0 0.3  
Since 1 July snowfall 43.3 33.5  
Snow Depth 0.00 in    
Sea Level Pressure  
Sea Level Pressure 30.13 in    
Wind  
Wind Speed 7 mph (SE)    
Max Wind Speed 16 mph    
Max Gust Speed 24 mph    
Visibility 9 miles    
Events Rain    
T = Trace of Precipitation, MM = Missing Value Source: NWS Daily Summary

Daily Weather History Graph

Daily Weather History Graph

Search for Another Location

Airport or City:

Trip Planner

Search our weather history database for the weather conditions in past years. The results will help you decide how hot, cold, wet, or windy it might be!

Date:

Astronomy

Apr. 07, 2014 Rise Set
Actual Time 6:18 AM EDT 7:17 PM EDT
Civil Twilight 5:50 AM EDT 7:46 PM EDT
Nautical Twilight 5:16 AM EDT 8:19 PM EDT
Astronomical Twilight 4:41 AM EDT 8:55 PM EDT
Moon 12:09 PM EDT (4/7) 1:55 AM EDT (4/7)
Length of Visible Light 13h 55m
Length of Day
12h 59m
First Quarter, 53% of the Moon is Illuminated
Apr 7
First Quarter
Apr 15
Full
Apr 22
Last Quarter
Apr 29
New
May 6
First Quarter

Hourly Weather History & Observations

Time (EDT) Temp. Windchill Dew Point Humidity Pressure Visibility Wind Dir Wind Speed Gust Speed Precip Events Conditions
12:51 AM 43.0 °F - 23.0 °F 45% 30.19 in 10.0 mi Calm Calm - N/A   Clear
1:51 AM 41.0 °F - 24.1 °F 51% 30.20 in 10.0 mi Calm Calm - N/A   Clear
2:51 AM 41.0 °F 39.0 °F 24.1 °F 51% 30.20 in 10.0 mi WSW 3.5 mph - N/A   Clear
3:51 AM 41.0 °F - 24.1 °F 51% 30.20 in 10.0 mi Calm Calm - N/A   Clear
4:51 AM 37.0 °F - 27.0 °F 67% 30.19 in 10.0 mi Calm Calm - N/A   Clear
5:51 AM 37.0 °F 34.5 °F 26.1 °F 65% 30.21 in 10.0 mi WSW 3.5 mph - N/A   Partly Cloudy
6:51 AM 37.0 °F - 26.1 °F 65% 30.22 in 10.0 mi Calm Calm - N/A   Mostly Cloudy
7:51 AM 42.1 °F - 28.9 °F 60% 30.23 in 10.0 mi Calm Calm - N/A   Mostly Cloudy
8:51 AM 48.0 °F - 28.0 °F 46% 30.24 in 10.0 mi Calm Calm - N/A   Overcast
9:51 AM 53.1 °F - 26.1 °F 35% 30.23 in 10.0 mi Variable 4.6 mph - N/A   Overcast
10:51 AM 52.0 °F - 30.9 °F 45% 30.23 in 10.0 mi SSE 8.1 mph - N/A   Overcast
11:51 AM 52.0 °F - 30.0 °F 43% 30.24 in 10.0 mi SSE 12.7 mph - N/A   Overcast
12:51 PM 50.0 °F - 28.0 °F 43% 30.24 in 10.0 mi SSE 15.0 mph - N/A   Overcast
1:51 PM 51.1 °F - 30.0 °F 44% 30.21 in 10.0 mi SSE 11.5 mph - N/A   Overcast
2:51 PM 51.1 °F - 24.1 °F 35% 30.17 in 10.0 mi SSE 15.0 mph - N/A   Overcast
3:51 PM 48.9 °F - 28.9 °F 46% 30.16 in 10.0 mi South 8.1 mph - N/A   Clear
4:51 PM 46.9 °F - 28.9 °F 50% 30.13 in 10.0 mi South 9.2 mph - N/A   Overcast
5:51 PM 46.9 °F - 33.1 °F 59% 30.09 in 10.0 mi ESE 6.9 mph - N/A   Overcast
6:51 PM 46.9 °F - 35.1 °F 63% 30.10 in 10.0 mi East 4.6 mph - N/A   Overcast
7:05 PM 46.9 °F - 36.0 °F 66% 30.09 in 10.0 mi ENE 4.6 mph - N/A   Overcast
7:51 PM 46.9 °F - 34.0 °F 61% 30.07 in 10.0 mi SE 8.1 mph - 0.00 in Rain Light Rain
8:51 PM 46.9 °F - 32.0 °F 56% 30.02 in 10.0 mi East 8.1 mph - 0.00 in   Overcast
9:51 PM 46.0 °F 42.5 °F 39.9 °F 79% 29.99 in 7.0 mi ESE 6.9 mph - 0.01 in Rain Light Rain
10:05 PM 46.0 °F 41.0 °F 42.1 °F 86% 29.97 in 4.0 mi ESE 10.4 mph - 0.02 in Rain Light Rain
10:51 PM 46.9 °F - 44.1 °F 90% 29.94 in 5.0 mi SE 11.5 mph - 0.05 in Rain Light Rain
11:07 PM 48.0 °F - 45.0 °F 89% 29.94 in 3.0 mi SE 12.7 mph 20.7 mph 0.01 in Rain Light Rain
11:33 PM 46.9 °F - 45.0 °F 93% 29.91 in 3.0 mi SE 10.4 mph - 0.02 in Rain Light Rain
11:38 PM 46.9 °F - 45.0 °F 93% 29.91 in 2.5 mi SE 12.7 mph - 0.03 in Rain Rain
11:51 PM 46.9 °F - 45.0 °F 93% 29.90 in 2.0 mi SE 9.2 mph - 0.06 in Rain Rain